TimePST,TemperatureF,Dew PointF,Humidity,Sea Level PressureIn,VisibilityMPH,Wind Direction,Wind SpeedMPH,Gust SpeedMPH,PrecipitationIn,Events,Conditions,WindDirDegrees,DateUTC
12:15 AM,19.4,8.6,63,30.28,10.0,ESE,3.5,-,N/A,,Clear,110,2013-02-27 08:15:00
12:35 AM,15.8,10.4,79,30.28,10.0,SSE,5.8,-,N/A,,Clear,150,2013-02-27 08:35:00
12:55 AM,17.6,8.6,68,30.28,10.0,Calm,Calm,-,N/A,,Clear,0,2013-02-27 08:55:00
1:15 AM,17.6,10.4,73,30.29,10.0,WNW,3.5,-,N/A,,Clear,300,2013-02-27 09:15:00
1:35 AM,15.8,8.6,73,30.30,10.0,SSE,3.5,-,N/A,,Clear,150,2013-02-27 09:35:00
1:55 AM,14.0,8.6,79,30.30,10.0,South,3.5,-,N/A,,Clear,180,2013-02-27 09:55:00
2:15 AM,14.0,8.6,79,30.30,10.0,Calm,Calm,-,N/A,,Clear,0,2013-02-27 10:15:00
2:35 AM,15.8,8.6,73,30.30,10.0,Calm,Calm,-,N/A,,Clear,0,2013-02-27 10:35:00
2:55 AM,15.8,8.6,73,30.30,10.0,Calm,Calm,-,N/A,,Clear,0,2013-02-27 10:55:00
3:15 AM,14.0,8.6,79,30.30,10.0,Calm,Calm,-,N/A,,Clear,0,2013-02-27 11:15:00
3:35 AM,15.8,8.6,73,30.31,10.0,Calm,Calm,-,N/A,,Clear,0,2013-02-27 11:35:00
3:55 AM,14.0,8.6,79,30.31,10.0,Calm,Calm,-,N/A,,Clear,0,2013-02-27 11:55:00
4:15 AM,15.8,8.6,73,30.31,10.0,Calm,Calm,-,N/A,,Clear,0,2013-02-27 12:15:00
4:35 AM,14.0,6.8,73,30.31,10.0,Calm,Calm,-,N/A,,Clear,0,2013-02-27 12:35:00
4:55 AM,14.0,8.6,79,30.32,10.0,Calm,Calm,-,N/A,,Clear,0,2013-02-27 12:55:00
5:15 AM,12.2,8.6,85,30.32,10.0,Calm,Calm,-,N/A,,Clear,0,2013-02-27 13:15:00
5:35 AM,12.2,6.8,79,30.33,10.0,Calm,Calm,-,N/A,,Clear,0,2013-02-27 13:35:00
6:50 AM,10.4,6.8,85,30.34,10.0,Calm,Calm,-,N/A,,Partly Cloudy,0,2013-02-27 14:50:00
7:55 AM,17.6,8.6,68,30.36,10.0,Calm,Calm,-,N/A,,Partly Cloudy,0,2013-02-27 15:55:00
9:50 AM,26.6,10.4,51,30.35,10.0,Calm,Calm,-,N/A,,Scattered Clouds,0,2013-02-27 17:50:00
10:55 AM,35.6,10.4,35,30.37,10.0,Calm,Calm,-,N/A,,Scattered Clouds,0,2013-02-27 18:55:00
11:55 AM,39.2,19.4,45,30.32,10.0,Calm,Calm,-,N/A,,Partly Cloudy,0,2013-02-27 19:55:00
12:55 PM,46.4,10.4,23,30.32,10.0,West,10.4,20.7,N/A,,Scattered Clouds,280,2013-02-27 20:55:00
1:45 PM,46.4,10.4,23,30.31,10.0,WNW,10.4,-,N/A,,Partly Cloudy,290,2013-02-27 21:45:00
2:55 PM,46.4,8.6,22,30.30,10.0,NW,11.5,17.3,N/A,,Partly Cloudy,310,2013-02-27 22:55:00
3:45 PM,46.4,10.4,23,30.30,10.0,West,13.8,-,N/A,,Partly Cloudy,280,2013-02-27 23:45:00
4:55 PM,46.4,14.0,27,30.30,10.0,West,6.9,-,N/A,,Clear,280,2013-02-28 00:55:00
5:15 PM,44.6,12.2,27,30.31,10.0,WSW,6.9,-,N/A,,Clear,250,2013-02-28 01:15:00
5:35 PM,42.8,14.0,31,30.30,10.0,West,9.2,-,N/A,,Clear,270,2013-02-28 01:35:00
5:55 PM,41.0,14.0,33,30.31,10.0,West,9.2,-,N/A,,Clear,270,2013-02-28 01:55:00
6:15 PM,41.0,17.6,39,30.31,10.0,WSW,11.5,-,N/A,,Clear,250,2013-02-28 02:15:00
6:35 PM,39.2,19.4,45,30.32,10.0,West,9.2,16.1,N/A,,Clear,260,2013-02-28 02:35:00
6:55 PM,33.8,17.6,52,30.34,10.0,SSW,4.6,-,N/A,,Clear,200,2013-02-28 02:55:00
7:15 PM,32.0,17.6,55,30.34,10.0,SE,4.6,-,N/A,,Clear,140,2013-02-28 03:15:00
7:35 PM,32.0,19.4,60,30.35,10.0,SE,3.5,-,N/A,,Clear,130,2013-02-28 03:35:00
7:55 PM,30.2,19.4,64,30.36,10.0,SE,4.6,-,N/A,,Clear,140,2013-02-28 03:55:00
8:15 PM,28.4,19.4,69,30.36,10.0,SSW,3.5,-,N/A,,Clear,200,2013-02-28 04:15:00
8:35 PM,26.6,19.4,74,30.36,10.0,SSE,4.6,-,N/A,,Clear,160,2013-02-28 04:35:00
8:55 PM,26.6,19.4,74,30.37,10.0,SSW,3.5,-,N/A,,Clear,210,2013-02-28 04:55:00
9:15 PM,28.4,19.4,69,30.38,10.0,Calm,Calm,-,N/A,,Clear,0,2013-02-28 05:15:00
9:35 PM,24.8,19.4,80,30.38,10.0,South,4.6,-,N/A,,Clear,170,2013-02-28 05:35:00
9:55 PM,24.8,19.4,80,30.39,10.0,SE,3.5,-,N/A,,Clear,140,2013-02-28 05:55:00
10:15 PM,26.6,17.6,69,30.39,10.0,Calm,Calm,-,N/A,,Scattered Clouds,0,2013-02-28 06:15:00
10:35 PM,26.6,19.4,74,30.39,10.0,South,3.5,-,N/A,,Partly Cloudy,170,2013-02-28 06:35:00
10:55 PM,26.6,19.4,74,30.39,10.0,Calm,Calm,-,N/A,,Clear,0,2013-02-28 06:55:00
11:15 PM,26.6,19.4,74,30.40,10.0,Calm,Calm,-,N/A,,Clear,0,2013-02-28 07:15:00
11:35 PM,26.6,21.2,80,30.40,10.0,Calm,Calm,-,N/A,,Clear,0,2013-02-28 07:35:00
11:55 PM,26.6,19.4,74,30.40,10.0,Calm,Calm,-,N/A,,Mostly Cloudy,0,2013-02-28 07:55:00